Theta_e
308 307 307 308 309 311 314 316 318 319 319 319 317 318 319 321 323 322 319 318 318 319 321 321 321 321 320 320 321 321 322 323 322 321 320 320 321 321 322 322 322 324 323 322 322 322 322 322 321 322 322 321 320 319 317 316 315 316 318 317 318 318 318 320 321 319 316 314 312 311 310 312 314 315 316 317 318 319 320 320 318 318 320 320 319 322 322
308 307 306 307 308 309 311 314 316 318 319 318 317 318 320 321 321 320 319 318 318 320 322 321 320 319 318 318 320 320 321 322 322 322 321 321 321 322 322 321 321 322 322 322 322 321 322 323 322 321 322 321 320 318 316 316 316 318 320 319 317 318 318 320 322 323 321 318 316 315 313 312 314 315 315 316 317 319 319 317 316 318 321 320 320 323 321
308 307 307 306 306 307 309 311 313 316 318 317 317 318 319 321 319 318 318 318 319 322 323 321 320 318 316 316 317 319 320 321 321 321 321 320 320 321 321 321 320 321 323 323 321 321 322 323 323 322 322 322 320 319 317 316 316 319 323 321 318 319 320 320 323 326 327 326 323 320 317 314 313 314 316 316 317 318 319 318 318 321 322 321 321 322 319
308 308 307 306 306 306 308 309 311 314 316 317 317 316 318 320 318 316 318 319 319 322 323 321 321 318 315 315 315 317 319 320 320 321 321 320 320 320 321 321 321 322 323 323 322 322 321 322 323 323 322 321 318 317 316 316 317 321 324 322 317 318 320 320 323 325 326 327 325 322 319 316 315 316 316 316 317 318 319 319 319 321 320 320 321 321 319
306 308 307 306 305 306 307 308 309 312 314 315 316 315 316 320 318 315 318 320 320 322 322 321 321 318 316 316 316 316 318 319 321 322 321 320 320 321 321 322 323 322 322 322 322 322 322 322 323 322 322 320 316 313 313 314 317 320 321 319 314 315 319 321 322 323 324 324 322 319 319 319 317 317 316 316 317 318 319 319 319 319 320 321 321 321 321
304 307 307 306 305 305 306 307 308 310 312 313 315 315 315 317 318 316 318 319 319 320 322 321 320 319 317 316 317 317 317 318 321 322 322 321 321 323 323 323 322 322 322 322 323 323 323 323 322 322 323 320 315 313 313 313 314 315 315 316 316 316 318 320 321 322 322 321 320 318 319 320 319 318 317 316 316 317 318 318 318 319 320 321 321 321 322
303 305 307 306 305 305 305 306 307 309 310 311 313 314 314 314 315 315 316 317 318 318 319 320 320 319 318 317 318 318 318 318 319 321 322 322 321 322 323 323 322 322 321 322 322 323 324 324 323 322 323 320 318 317 316 313 312 313 314 315 317 317 318 319 321 321 321 321 320 318 317 319 319 319 318 316 316 316 316 316 316 318 319 319 320 321 321
302 303 305 306 305 304 304 304 305 308 309 310 311 312 312 313 314 314 314 315 317 317 316 317 320 320 318 318 317 317 318 318 318 319 322 322 321 322 323 322 322 322 322 323 323 323 323 324 323 323 322 319 317 319 319 316 313 313 314 314 315 316 318 320 321 320 320 321 320 318 317 318 318 318 318 318 317 316 316 316 316 317 318 317 318 320 319
302 302 304 306 305 304 303 302 304 307 308 308 309 308 306 306 307 309 314 315 314 315 315 315 318 319 319 318 317 317 318 318 319 320 320 321 321 322 322 322 322 322 322 323 323 322 321 323 324 323 321 319 318 318 320 318 315 312 313 315 315 314 316 318 318 319 320 320 320 319 316 317 318 318 318 317 318 316 315 315 315 315 316 317 317 318 317
302 302 302 305 306 304 303 301 302 306 307 306 308 307 304 303 304 307 313 314 311 312 314 313 314 316 318 318 317 318 318 318 320 321 320 320 320 319 320 322 322 324 324 323 323 323 323 324 323 322 321 321 320 320 319 317 315 313 312 314 315 314 315 316 317 320 321 319 319 318 316 318 320 319 318 317 317 317 315 315 315 314 315 316 317 317 317
301 302 302 304 305 305 304 302 301 304 306 306 306 306 304 306 308 309 312 313 309 309 311 312 312 312 314 316 317 318 318 318 320 320 318 317 314 313 316 320 322 323 322 318 316 316 316 316 316 316 318 319 318 318 317 315 314 314 313 313 313 313 315 315 316 320 320 316 316 317 319 322 320 317 318 317 316 317 316 315 315 314 315 315 315 316 317
301 302 302 302 304 305 304 302 301 301 304 306 306 305 303 305 309 311 311 311 308 306 308 310 310 309 309 312 314 315 316 316 317 318 318 314 310 309 312 317 321 320 313 308 309 312 312 312 312 312 313 314 314 314 315 315 314 314 314 315 314 313 314 314 315 318 316 312 315 320 322 321 315 310 310 312 313 315 316 315 315 314 314 313 313 314 314
300 301 302 302 303 304 304 303 301 300 302 305 305 305 304 305 308 309 308 308 308 306 306 307 307 306 308 310 309 308 308 308 309 312 314 312 310 309 308 311 314 311 306 306 312 315 314 312 312 311 310 310 311 311 312 312 312 312 314 315 314 313 313 314 315 315 313 312 317 322 321 316 309 304 304 308 313 315 316 317 316 314 313 313 312 313 312
299 300 302 302 302 303 304 304 303 301 301 303 305 305 304 304 307 308 307 308 307 305 305 306 305 304 306 307 306 305 305 305 306 307 307 307 308 307 304 303 302 302 303 308 314 315 313 312 312 312 311 311 313 312 310 307 305 306 309 310 312 314 314 314 315 315 314 314 316 318 319 317 311 305 305 309 313 314 316 318 317 315 315 314 313 313 313
299 299 301 302 301 302 303 303 303 302 300 302 303 304 304 304 306 307 307 307 306 304 305 306 306 305 305 305 305 305 305 305 306 305 303 302 303 302 300 298 297 299 303 308 311 313 312 312 314 315 314 314 315 314 310 307 303 301 302 304 307 311 313 314 316 316 315 315 316 316 318 320 315 310 307 307 310 312 314 317 317 314 315 316 315 315 314
299 298 299 301 301 301 301 302 303 303 301 301 302 303 303 304 304 305 305 306 307 307 306 306 305 304 304 303 304 305 306 306 306 305 303 303 302 300 298 297 298 300 304 306 307 309 311 313 315 316 314 314 316 315 311 309 307 301 300 302 305 307 309 311 314 315 314 315 317 317 318 317 314 309 304 302 306 310 312 314 314 312 313 315 315 314 313
299 298 298 300 300 301 300 301 302 303 301 300 301 302 302 303 303 304 305 305 306 305 304 304 305 304 304 304 303 304 305 305 305 306 305 304 302 301 299 299 300 301 302 305 307 308 311 312 313 314 313 311 313 314 310 310 310 305 303 304 306 307 308 309 313 315 314 314 315 316 316 315 310 304 299 299 302 307 313 314 312 309 309 310 312 312 310
298 298 298 298 299 300 300 300 301 302 302 300 300 301 302 303 303 303 304 304 304 303 302 302 303 304 305 305 304 303 303 304 304 305 304 302 301 301 300 301 302 301 302 305 308 309 311 311 311 313 311 308 309 312 311 310 310 307 306 307 307 307 308 309 312 313 313 314 315 314 315 313 307 300 297 298 301 307 313 313 307 304 302 302 305 308 306
297 298 298 298 298 299 300 300 299 300 302 301 299 300 302 302 302 302 303 302 303 304 302 299 301 303 303 302 302 301 300 303 305 304 303 303 302 300 300 301 302 302 302 305 308 309 310 310 310 310 310 308 307 309 310 310 309 306 306 308 308 308 308 308 310 312 313 314 314 314 315 310 302 297 296 298 304 310 311 305 300 300 300 299 301 304 303
297 297 298 298 298 298 300 300 299 299 301 301 300 299 301 302 302 302 302 302 302 302 301 298 299 301 302 301 302 301 300 302 304 304 305 304 301 301 304 304 303 302 303 305 308 309 309 310 309 309 309 309 307 308 309 308 305 305 307 309 309 308 309 309 310 310 311 312 313 316 315 306 299 298 298 299 304 308 305 299 296 297 298 299 300 300 300
296 297 297 298 298 298 299 300 299 298 299 300 300 299 299 301 301 300 301 301 301 301 300 298 297 299 300 301 302 302 302 303 304 304 304 302 301 303 306 305 303 303 304 305 307 308 308 308 307 306 307 307 306 307 308 308 305 302 303 306 308 309 310 310 311 311 311 312 313 311 308 302 300 301 303 303 303 301 299 299 298 295 295 297 299 298 297
296 297 297 297 298 298 298 299 300 300 299 299 300 299 299 299 299 298 298 298 299 298 297 296 296 297 297 298 299 300 302 302 302 304 303 301 301 302 302 302 303 303 302 304 306 306 305 305 305 305 306 306 306 306 306 308 308 302 299 303 308 309 307 307 308 309 308 309 308 302 299 298 298 299 302 303 301 298 297 299 299 297 296 296 297 298 296
295 296 296 297 297 298 298 298 299 300 299 299 299 299 298 298 297 297 297 297 296 295 295 295 295 295 295 296 296 298 299 299 300 301 302 302 302 300 299 301 301 300 299 301 304 305 304 303 304 305 306 305 305 305 304 305 306 303 302 303 303 301 300 301 303 304 303 302 300 297 297 298 297 296 297 298 297 296 297 299 299 298 297 296 296 297 296
295 295 296 297 297 297 298 298 298 299 300 299 299 298 298 298 296 296 297 298 297 297 296 295 296 296 296 296 295 295 296 297 298 299 300 302 302 301 300 299 298 299 299 297 297 299 301 301 300 302 305 305 304 305 306 305 304 302 303 304 301 297 296 299 301 303 305 302 298 295 296 297 296 296 295 295 294 294 295 297 298 296 295 294 295 295 294
294 295 295 296 297 297 297 298 298 299 299 299 299 299 298 298 297 296 297 298 298 299 299 297 296 296 296 296 295 294 294 295 296 297 298 298 300 301 299 296 295 297 298 295 294 297 300 300 299 300 304 305 304 305 306 306 303 302 302 304 303 299 297 299 300 301 300 298 294 292 292 293 294 295 295 295 295 293 292 293 293 292 292 292 292 292 293
294 294 295 296 296 297 297 298 298 298 299 299 299 299 298 297 297 296 297 298 299 300 300 299 297 295 294 295 295 295 294 294 295 295 295 296 297 298 296 294 293 294 294 293 295 298 298 297 298 300 303 303 303 303 303 301 300 301 302 302 300 298 298 299 299 298 296 294 292 292 293 294 293 294 294 294 295 294 293 292 291 290 291 291 291 290 290
294 294 294 295 296 296 297 297 298 298 299 298 298 299 298 297 296 296 296 298 300 300 300 300 298 294 293 295 295 294 294 294 294 294 294 294 295 295 295 295 294 294 293 294 294 295 296 296 297 299 300 298 298 298 298 297 297 298 300 298 296 297 299 298 297 298 299 297 294 294 296 297 296 295 295 294 293 294 294 293 292 292 292 292 293 291 289
294 294 294 294 295 296 296 297 297 298 299 298 298 299 299 298 297 296 296 297 299 299 300 300 298 295 294 295 295 294 294 294 294 294 294 294 294 294 295 295 295 294 295 296 296 296 297 298 298 297 295 295 296 296 295 294 295 298 299 298 296 297 298 297 297 299 299 297 296 295 296 297 296 296 295 294 292 293 294 294 295 294 292 292 293 294 292
293 293 294 294 295 295 296 296 297 297 298 299 298 298 298 298 297 296 296 296 297 297 298 297 297 296 296 296 295 294 294 294 294 294 294 294 294 294 294 294 295 295 296 297 297 297 298 298 296 295 294 295 298 297 295 295 297 299 300 298 296 296 297 297 296 296 295 295 295 295 295 295 295 295 295 293 292 293 293 293 294 294 292 292 292 293 293
293 293 293 294 294 295 296 296 297 297 298 298 298 297 297 297 297 296 296 296 296 296 297 297 297 296 294 293 293 293 293 294 294 294 294 294 294 294 294 294 295 295 295 295 296 297 297 296 293 292 293 294 297 297 295 295 297 298 298 297 295 294 295 295 295 295 295 294 293 293 294 294 293 292 292 291 291 292 293 292 292 292 292 292 292 292 292
292 293 293 293 294 294 295 296 296 297 297 296 296 297 297 298 298 297 297 296 296 296 297 298 297 295 293 292 292 293 293 294 294 293 293 293 293 294 294 294 294 294 294 294 295 296 296 295 294 292 292 293 295 296 294 294 296 297 298 297 294 292 293 294 294 294 294 292 291 291 292 292 291 291 291 291 290 291 292 293 292 291 291 291 291 291 291
292 292 292 293 293 294 294 295 296 297 297 296 296 297 298 298 298 298 297 297 296 296 297 298 297 295 295 294 291 291 293 293 293 292 293 293 293 293 293 293 293 294 294 294 295 295 294 294 294 293 293 294 295 294 293 294 296 297 296 295 293 292 293 293 292 292 291 291 292 293 292 291 290 291 292 292 291 290 291 292 290 289 289 289 289 289 288
292 292 292 293 293 293 294 295 296 296 296 296 296 297 297 297 298 298 298 297 295 294 296 298 297 296 297 295 291 291 292 293 292 292 292 293 292 292 292 292 292 293 294 294 294 294 293 293 293 293 293 294 294 293 293 295 296 295 294 293 292 291 292 292 292 292 291 291 293 294 293 292 291 291 291 292 291 290 290 289 288 287 289 290 291 291 289
292 291 291 292 293 293 294 295 295 296 296 296 296 296 296 296 297 298 297 296 295 294 295 297 297 296 296 294 292 292 293 293 293 293 293 293 292 292 292 292 292 293 294 294 294 293 292 292 293 294 293 292 292 293 294 296 296 294 292 292 291 291 291 291 292 292 291 290 292 293 292 292 292 291 291 291 290 289 289 288 288 289 291 292 292 292 291
292 292 292 292 292 293 293 294 295 295 294 294 295 296 296 296 297 297 297 296 296 296 296 296 297 296 295 294 294 294 293 293 294 294 293 293 292 292 292 292 292 293 294 294 294 294 293 293 294 294 294 293 293 293 294 295 295 294 293 292 291 290 291 292 292 291 290 290 290 291 291 291 291 291 291 291 290 289 290 289 289 289 290 291 290 289 289
292 292 291 291 292 292 293 294 295 295 294 294 295 296 297 297 297 296 296 296 295 296 297 297 297 296 295 295 295 294 293 293 294 294 293 292 292 292 292 292 293 294 294 293 293 293 293 294 293 293 294 295 294 293 294 294 294 294 294 293 292 291 292 292 291 291 291 290 290 290 290 290 290 290 290 290 290 289 289 289 288 288 289 290 290 289 289
292 292 292 292 292 292 292 293 294 294 294 295 295 296 296 296 295 294 293 294 294 294 296 297 297 297 296 296 295 293 293 294 294 293 293 293 292 292 292 293 294 294 293 293 293 294 294 294 293 292 294 295 294 294 294 294 294 294 293 293 292 292 291 291 292 292 292 290 290 289 289 289 289 289 288 289 289 289 289 290 289 289 290 291 290 289 289
291 292 292 292 291 291 292 293 294 294 294 295 296 295 294 294 294 293 293 294 294 294 295 297 297 297 296 296 295 293 294 294 294 294 294 293 293 293 293 293 294 295 294 293 294 293 294 293 293 292 294 295 294 294 294 294 294 293 293 292 292 291 291 292 293 294 293 292 291 291 290 290 291 291 289 289 289 289 289 289 289 289 289 290 289 288 288
291 291 292 292 291 291 292 293 293 294 294 294 294 294 294 293 294 294 294 294 294 294 295 297 297 296 295 296 295 294 294 295 294 294 295 294 293 294 294 293 294 295 294 294 295 294 293 293 293 293 293 294 294 294 294 294 294 293 292 292 291 291 292 292 292 293 293 293 292 293 293 292 292 292 291 290 289 289 288 289 288 287 287 287 286 286 286
291 291 291 291 291 292 293 294 294 294 294 293 293 293 293 292 293 293 294 294 293 294 296 297 296 294 295 296 295 294 294 295 295 295 295 294 294 295 294 293 294 295 294 295 296 294 292 293 294 294 293 294 294 294 294 294 292 288 285 285 287 289 291 292 291 291 292 292 292 292 293 292 292 292 291 290 289 288 288 288 287 285 285 284 283 283 282
291 291 291 292 292 293 294 294 293 292 292 292 292 292 292 292 290 290 293 294 293 293 294 295 294 294 295 295 295 295 294 294 295 295 295 295 295 294 294 294 294 294 294 295 295 293 293 294 295 294 295 294 293 292 293 292 286 280 276 275 277 280 284 288 288 285 285 290 292 289 287 287 288 286 283 285 288 289 288 287 283 277 275 277 277 276 276
291 291 292 292 291 291 292 292 291 290 291 291 292 291 291 291 290 289 291 293 292 292 293 293 294 294 294 294 295 294 293 292 293 294 295 295 294 294 293 293 293 293 294 294 293 293 293 294 294 295 295 290 284 284 285 283 278 274 272 270 270 271 275 280 281 277 274 279 285 282 276 274 273 270 268 271 275 276 276 276 273 268 267 269 271 272 273
292 291 292 291 290 289 290 290 291 290 290 290 291 291 289 289 290 290 289 287 287 290 292 292 293 293 293 293 293 293 292 292 293 293 294 294 293 292 292 292 292 292 293 292 293 293 294 295 295 295 290 281 275 274 274 271 270 271 270 267 266 267 269 272 274 271 267 268 270 270 267 264 263 261 261 263 267 267 265 264 264 264 265 267 269 270 271
291 291 291 291 290 289 291 291 291 291 290 290 291 292 291 289 288 288 287 286 287 290 293 293 293 294 294 293 293 292 292 292 292 292 292 291 291 291 292 292 292 291 291 292 292 293 293 294 293 289 283 276 271 268 266 265 266 268 269 266 264 265 267 268 269 268 267 265 264 263 263 261 260 260 259 260 263 265 264 261 261 263 265 266 267 267 268
291 290 290 290 290 290 291 290 289 290 291 291 290 290 291 291 289 288 288 289 290 291 292 293 294 294 293 291 292 293 292 292 293 293 292 291 291 291 292 291 290 289 290 291 291 291 292 293 291 286 280 275 270 265 263 262 262 263 266 266 264 262 263 265 265 265 265 265 263 263 263 262 260 260 259 258 259 260 261 260 261 263 264 265 264 264 265
290 289 290 290 290 289 290 290 290 290 291 290 289 289 291 293 292 288 287 289 291 292 293 293 294 293 290 289 290 291 290 291 292 292 291 291 292 291 290 289 289 289 290 290 290 291 293 293 288 280 274 270 265 262 261 261 260 260 263 265 263 261 260 262 262 262 263 263 263 263 262 261 260 259 258 258 257 258 258 259 260 262 263 262 261 261 262
287 287 288 290 289 287 288 288 287 286 285 286 287 288 290 291 290 287 286 288 291 293 293 292 292 291 289 289 290 289 288 289 291 291 290 291 291 290 288 289 290 291 291 291 292 293 291 286 278 270 266 264 262 261 261 260 259 259 260 260 260 260 260 259 260 260 261 261 262 262 261 259 259 258 258 257 257 257 257 259 260 261 262 261 260 261 262
286 286 287 288 287 286 286 285 284 282 281 282 283 284 286 288 288 287 286 288 291 293 292 291 291 290 289 289 289 289 288 288 289 290 289 289 289 290 289 289 290 291 291 291 292 290 283 274 268 264 262 261 260 260 260 259 258 258 258 258 258 259 258 258 258 258 258 259 260 259 258 258 258 258 258 257 257 256 257 258 260 261 261 261 260 261 262
284 284 284 283 282 282 282 282 283 283 282 281 281 283 285 288 288 286 286 288 291 292 291 291 291 291 290 289 290 290 290 290 290 290 289 289 289 290 290 290 291 292 290 287 283 277 270 265 263 262 261 260 259 259 258 258 258 257 257 257 257 257 257 257 257 257 257 257 258 258 257 258 258 258 258 258 257 256 257 258 260 261 261 261 261 260 260
281 281 279 278 280 282 282 282 284 285 284 282 284 285 286 287 286 283 283 287 291 291 290 291 291 289 288 289 290 290 290 289 289 289 290 289 288 289 289 290 291 290 283 276 270 267 263 262 262 261 260 259 259 258 257 256 256 256 256 256 256 256 257 256 256 256 256 256 257 257 258 258 258 258 258 257 257 256 257 258 259 260 260 260 261 261 260
279 277 275 274 276 278 280 282 284 284 282 282 282 281 281 284 284 280 278 283 290 292 290 289 288 287 288 289 290 290 290 289 288 289 290 287 285 288 291 289 283 277 271 266 264 263 262 261 260 259 259 258 258 257 256 255 255 255 255 255 255 255 256 256 255 255 255 256 256 257 257 257 257 257 257 257 258 258 258 258 258 259 259 260 261 261 261
278 277 275 273 272 271 273 277 280 278 276 275 275 274 275 278 278 273 273 281 290 291 287 285 286 288 289 288 288 288 288 288 288 289 288 281 276 278 281 276 269 266 265 264 263 262 261 260 259 258 257 257 256 255 254 254 254 255 255 254 254 254 254 254 255 255 255 255 256 256 256 256 257 258 258 259 260 260 259 258 257 258 259 260 260 260 260
Wind_Speed
18 17 16 14 12 13 15 17 19 19 18 18 27 26 10 5 6 12 42 61 43 18 9 10 8 8 13 12 6 1 5 7 10 15 16 12 8 7 6 9 12 11 10 11 10 10 7 10 13 9 9 11 8 12 15 13 12 9 4 5 5 3 1 6 6 4 3 3 4 3 3 1 4 7 8 8 10 10 8 4 1 3 7 6 4 9 5
19 19 17 15 13 12 12 14 16 18 21 20 18 12 3 3 2 6 37 61 42 13 10 12 9 11 14 14 11 6 5 7 9 12 15 11 8 10 8 8 10 9 8 9 11 12 9 11 13 11 9 6 3 9 16 14 11 8 4 5 7 5 4 5 5 6 5 4 4 3 2 3 6 8 9 9 10 11 6 0 0 5 9 8 7 10 4
18 20 19 16 14 12 11 12 13 16 20 21 16 6 1 3 0 3 17 39 30 12 12 14 12 13 14 14 15 12 8 7 9 10 11 10 8 9 8 8 9 7 6 6 10 13 13 12 10 9 9 4 2 4 12 14 12 7 3 6 8 6 6 8 7 9 10 8 7 6 6 6 5 7 12 13 14 15 9 3 6 10 8 9 10 10 2
17 19 20 17 13 12 11 10 11 14 17 20 18 7 2 3 2 1 4 10 11 10 12 12 11 12 11 9 12 17 14 10 11 12 11 11 11 10 7 6 7 8 9 9 10 13 14 11 7 7 8 5 1 1 6 12 11 6 6 8 7 2 3 11 13 13 13 8 3 5 9 8 9 12 15 16 17 17 10 6 10 9 5 9 14 12 6
17 18 19 17 13 12 12 10 9 11 13 17 16 6 2 3 4 4 4 3 6 9 10 10 10 12 14 9 9 17 19 12 9 12 12 12 13 11 7 6 9 12 15 13 11 12 13 12 12 11 8 4 2 2 2 7 6 6 4 4 4 2 4 12 15 17 15 7 2 7 11 11 14 16 16 17 17 17 14 14 13 7 5 10 10 11 13
18 17 18 17 14 12 11 10 9 9 9 13 12 3 1 3 3 5 5 2 4 7 9 14 16 17 16 10 8 14 17 15 11 11 12 12 12 10 8 11 16 19 17 12 10 11 12 14 16 14 7 4 4 2 1 4 3 7 3 3 3 3 7 11 12 16 19 11 3 6 9 9 11 14 17 19 19 20 21 22 17 10 11 12 6 13 17
20 17 18 17 14 12 11 10 9 8 7 10 9 3 1 1 0 1 2 2 3 2 2 11 19 21 17 12 11 14 17 20 16 11 8 9 12 13 13 18 20 20 17 13 12 13 13 14 16 14 9 6 6 5 4 4 3 5 4 4 2 4 8 10 12 14 19 18 10 6 7 8 8 11 15 19 22 24 24 23 20 17 20 19 8 9 13
19 18 18 17 14 12 11 10 9 8 7 7 6 2 1 1 0 0 1 4 4 2 2 4 11 15 15 13 13 14 18 21 17 12 11 12 14 15 18 21 19 19 20 18 16 18 18 19 17 14 12 9 8 8 5 4 5 5 6 3 1 4 5 4 6 9 15 16 12 8 8 9 10 11 15 17 19 20 20 20 18 16 21 22 14 11 10
18 18 17 17 16 14 11 10 8 8 7 4 2 2 1 2 1 1 2 4 5 5 5 4 6 8 11 13 14 15 20 23 18 13 12 12 13 14 21 24 17 15 19 21 22 24 23 20 15 11 13 11 10 9 5 7 9 8 7 5 4 6 4 2 4 7 12 11 11 9 4 3 9 16 20 19 15 14 17 17 15 16 19 18 15 14 9
17 18 17 16 18 17 13 11 9 9 9 5 2 2 3 3 1 1 1 1 2 4 5 6 6 5 5 11 14 15 18 20 16 9 4 4 6 7 15 20 13 11 19 23 23 20 13 8 4 4 6 5 4 5 5 8 11 10 8 5 4 7 5 2 5 8 9 6 8 7 3 1 8 16 18 18 15 14 15 15 16 18 16 13 13 12 5
17 17 17 16 18 18 14 12 10 10 12 9 4 2 4 4 1 2 2 1 2 2 4 6 6 2 1 6 10 12 15 15 14 11 5 3 2 1 5 12 11 10 12 10 5 3 3 4 4 4 4 4 4 4 6 8 9 8 9 6 4 7 7 4 5 6 5 2 6 5 5 8 9 6 6 12 17 18 17 15 15 15 12 10 9 4 5
17 16 16 16 17 17 14 12 11 10 13 14 7 4 7 7 3 3 3 2 2 2 3 4 4 2 2 1 1 4 8 7 8 10 7 4 2 2 1 7 8 6 4 2 7 10 8 6 7 7 7 6 5 4 5 8 6 4 7 8 8 10 8 5 5 4 2 4 7 6 9 10 5 3 2 5 10 17 19 17 15 14 13 14 11 5 6
16 15 15 15 15 16 14 12 11 11 14 16 12 9 11 10 4 2 3 2 2 3 3 2 1 3 4 3 4 3 2 4 4 1 3 4 3 4 2 1 3 1 1 2 6 9 6 4 5 4 4 5 5 4 3 4 2 0 3 5 8 11 8 4 4 3 1 4 8 8 5 3 1 2 1 1 2 9 13 14 15 14 13 13 14 13 9
16 16 15 13 13 15 14 13 12 11 13 15 14 13 15 13 6 2 3 2 2 3 2 1 2 5 5 5 6 4 3 4 4 5 4 2 3 4 3 2 2 2 2 0 2 5 4 2 2 2 1 2 1 1 2 3 3 1 0 1 2 9 9 5 5 4 3 5 7 3 5 4 2 3 4 5 4 9 11 10 11 11 11 11 12 13 10
16 16 15 13 12 13 13 13 14 12 11 14 15 14 16 17 11 4 3 2 1 3 3 3 3 7 7 7 7 6 4 3 3 3 3 3 3 2 1 1 2 3 2 1 2 3 3 2 3 5 4 3 3 3 3 2 1 1 1 2 1 3 6 6 7 5 4 4 5 3 5 7 4 4 5 3 1 5 8 6 5 5 8 10 10 11 11
17 17 15 13 12 13 13 13 15 13 11 13 15 14 17 19 14 7 4 2 2 3 3 4 4 6 5 4 4 4 4 4 4 3 2 1 2 2 1 2 2 2 2 2 2 2 3 4 4 5 4 4 4 3 2 4 3 2 1 2 3 2 1 3 4 4 4 5 5 6 6 4 1 3 3 3 1 5 8 1 4 3 6 9 11 11 10
16 16 16 15 13 13 14 14 16 15 13 13 14 13 16 19 16 10 4 2 2 2 1 5 7 5 4 3 2 2 2 3 3 2 2 2 2 2 2 3 3 4 3 2 1 2 3 3 2 3 2 1 3 3 3 4 4 3 3 4 4 3 2 3 4 4 5 7 5 4 3 1 2 4 4 2 1 5 8 1 4 4 5 6 9 9 7
16 16 16 16 15 14 14 15 16 16 15 15 14 11 14 19 19 12 5 2 2 2 1 4 7 5 3 3 3 3 3 4 3 2 3 2 2 2 2 1 1 1 1 1 2 2 4 3 2 3 2 1 2 2 3 4 4 4 5 6 4 3 2 3 5 5 6 8 6 3 2 1 2 4 4 2 1 3 4 4 1 3 4 2 4 6 6
17 17 16 16 17 16 15 16 18 18 16 17 15 10 12 19 20 13 5 2 3 3 3 3 3 3 2 2 4 2 1 2 3 3 4 3 1 3 3 1 1 0 1 1 1 2 3 3 1 1 2 2 2 1 2 3 2 3 6 6 4 4 3 2 4 4 4 5 4 2 2 1 4 4 2 1 2 2 4 2 2 2 4 4 4 4 5
17 17 17 16 16 17 17 17 19 21 19 18 17 12 10 17 22 16 7 3 2 2 3 3 3 3 4 3 5 6 3 1 2 3 4 3 3 5 4 1 1 2 2 2 2 2 2 3 2 1 1 2 2 1 1 1 1 2 4 3 2 4 4 3 4 4 2 2 4 3 2 2 8 8 3 1 2 2 3 3 3 2 3 5 4 4 5
18 17 17 17 16 17 18 17 18 20 20 19 20 15 10 14 22 20 11 5 3 2 3 6 5 4 4 5 6 8 8 6 6 4 2 2 4 5 3 2 3 4 3 2 2 1 1 2 2 1 0 0 1 1 1 1 1 1 1 1 1 3 4 2 3 4 3 3 5 2 1 3 8 6 3 3 2 2 4 5 3 1 2 4 3 3 5
19 18 18 18 17 16 17 17 17 18 18 19 21 17 10 13 20 20 11 5 3 2 2 6 6 4 4 5 6 8 9 8 8 7 5 3 3 3 1 2 4 3 1 1 1 1 1 2 2 2 1 1 1 1 1 1 2 1 1 1 2 2 2 1 1 2 2 2 2 1 2 3 4 1 2 3 3 2 2 5 4 1 2 3 3 4 6
21 20 19 19 18 17 17 17 17 17 17 18 21 20 14 13 17 18 10 5 4 3 4 5 4 3 3 5 8 9 9 7 8 10 8 5 3 2 1 2 3 1 1 0 0 0 1 2 1 1 1 2 3 2 0 2 2 2 2 3 2 1 1 0 0 1 1 1 2 2 1 3 3 3 3 3 3 2 1 4 3 2 2 3 3 2 4
22 21 20 19 19 18 17 18 18 17 17 17 20 24 20 15 15 16 9 4 3 2 2 2 3 3 3 7 9 10 9 9 10 11 10 7 4 3 1 1 2 1 1 0 1 1 2 1 1 0 2 2 3 3 3 3 3 2 2 2 2 1 3 1 1 2 2 1 2 3 2 2 3 2 2 2 2 1 1 2 2 1 2 3 1 2 4
23 22 21 20 19 18 18 18 17 17 17 18 20 24 21 17 18 18 8 1 3 4 2 4 5 2 4 6 8 8 11 12 11 10 9 6 2 1 3 4 3 3 2 1 0 1 1 1 1 1 2 2 2 3 3 2 2 3 4 3 2 2 4 3 2 2 1 1 1 3 2 0 1 1 0 1 2 1 1 2 2 2 1 1 2 3 4
24 23 22 22 20 19 18 18 17 17 18 18 19 23 24 23 24 21 8 0 1 1 1 4 3 2 4 6 5 6 10 13 12 10 8 5 3 5 8 7 5 4 4 2 1 1 1 1 1 2 2 2 1 1 1 1 2 2 3 3 1 3 4 3 2 2 1 0 1 1 1 1 1 2 3 2 1 2 2 2 2 2 2 2 2 2 2
25 24 23 23 21 20 19 18 17 17 18 17 17 20 24 26 26 26 18 8 2 1 3 4 2 2 3 3 4 5 8 12 13 10 7 7 9 12 12 7 4 4 4 2 2 2 1 1 1 1 1 1 1 1 1 1 2 1 3 3 2 4 4 3 3 2 3 3 5 4 2 2 3 5 6 5 3 2 2 1 1 1 2 3 2 1 2
26 25 24 23 23 21 20 19 18 18 17 17 17 19 23 26 29 31 30 19 5 2 3 4 3 3 3 2 5 8 10 13 15 12 9 11 13 13 10 6 5 4 3 2 2 2 2 2 1 1 1 1 1 1 1 2 1 3 4 4 5 4 4 4 4 2 2 3 7 6 2 2 1 4 6 7 6 4 4 4 3 3 3 3 3 3 2
27 26 24 24 23 22 21 19 18 18 17 16 16 13 15 21 28 33 34 25 10 1 2 3 3 4 3 3 5 8 9 12 14 12 10 11 11 8 6 5 5 4 3 2 2 2 2 2 2 2 1 1 1 1 1 1 3 6 4 4 5 2 1 3 4 2 1 2 6 6 3 2 2 3 4 6 7 7 6 5 4 4 4 4 4 4 3
27 26 25 24 23 23 22 20 19 18 18 17 14 7 3 8 20 31 35 29 16 5 2 2 4 3 2 3 4 4 6 8 10 11 10 8 7 6 6 5 3 2 3 2 2 2 2 1 1 1 1 2 1 2 2 1 4 7 4 5 6 4 3 3 3 3 3 2 4 4 4 3 1 1 2 3 4 5 5 4 4 5 5 5 5 4 3
26 27 25 24 24 23 22 21 20 19 18 16 10 4 0 2 14 29 36 31 21 9 1 1 3 3 2 2 2 2 6 8 7 7 7 6 5 5 4 3 2 2 3 3 2 2 2 2 2 2 1 0 1 2 2 2 4 6 3 6 6 6 5 3 2 3 4 4 5 4 2 2 2 1 1 2 3 4 3 2 3 4 4 5 5 4 4
26 27 25 24 24 24 22 22 20 18 19 19 13 7 4 1 4 22 35 32 21 8 1 1 3 2 2 3 1 2 6 8 6 4 4 3 4 3 2 1 2 2 2 2 3 3 2 2 3 3 1 1 2 1 1 3 6 4 3 6 6 6 6 5 2 3 4 6 7 4 1 2 3 3 3 3 4 5 3 1 3 4 4 3 3 3 4
24 27 26 24 23 23 22 22 20 19 21 22 19 17 12 1 2 19 34 30 14 4 1 2 3 2 3 4 3 2 5 6 4 3 4 3 3 4 2 1 2 1 2 2 2 2 1 1 3 3 2 1 2 1 2 8 9 3 5 5 5 5 5 4 4 3 4 5 5 4 3 4 5 4 2 3 4 3 3 2 4 4 2 1 2 3 4
22 24 25 24 23 23 22 21 20 20 18 14 13 19 21 11 7 21 34 25 8 1 2 2 2 2 3 3 2 4 7 6 4 5 5 4 4 5 4 3 3 2 3 3 2 1 1 2 4 4 3 1 1 2 6 11 9 4 5 4 4 5 4 3 3 4 4 4 4 3 2 3 2 2 2 2 3 2 2 2 3 2 1 3 4 5 4
20 22 24 24 22 22 22 20 18 16 11 7 7 17 24 19 14 24 34 24 7 1 3 2 2 4 4 3 2 6 8 6 5 6 6 4 4 4 4 3 4 5 3 3 3 2 3 4 4 3 3 3 4 5 7 8 6 6 5 5 6 5 4 3 4 2 2 3 3 3 1 4 2 1 2 3 4 3 2 2 3 3 3 5 6 6 5
18 21 23 24 22 19 17 16 14 9 5 6 9 15 20 21 20 27 34 24 8 2 3 3 3 5 5 3 4 6 7 5 5 5 4 4 3 3 3 4 5 4 2 2 3 5 5 4 3 3 4 6 6 7 7 5 5 7 8 6 6 6 5 5 4 2 3 3 3 2 1 1 2 4 3 3 4 4 4 3 3 4 6 7 7 6 5
17 19 21 21 17 12 8 8 10 10 10 9 8 10 16 19 16 16 17 12 3 1 2 3 5 7 6 4 4 6 6 6 5 4 4 4 4 3 4 4 5 3 2 2 5 6 5 4 3 4 7 8 8 8 8 8 8 7 3 3 5 6 5 5 6 6 5 3 2 2 1 2 4 4 3 3 4 5 6 6 6 7 8 8 7 6 5
16 18 19 15 10 6 4 6 10 15 16 13 11 9 8 8 6 4 4 3 2 1 2 3 5 6 5 4 5 7 7 7 6 4 4 4 4 3 3 3 4 3 3 3 5 5 4 4 4 5 7 9 9 10 10 9 7 3 3 5 5 6 6 5 6 8 7 4 4 5 4 3 5 6 5 5 6 6 6 6 6 5 5 6 5 4 4
16 14 12 10 7 4 4 9 15 17 16 13 10 5 2 2 2 3 3 2 1 2 3 4 5 6 6 7 7 5 4 5 6 6 5 5 4 3 3 3 3 2 2 4 5 6 4 4 5 6 7 9 11 13 10 5 3 2 4 4 4 5 6 7 8 9 9 7 5 6 6 6 7 7 5 5 5 4 4 4 4 4 4 5 4 4 4
13 9 6 5 7 6 8 15 22 20 12 6 3 2 1 2 2 2 2 2 1 2 3 3 3 3 5 8 9 5 3 3 5 6 7 6 3 3 3 3 2 2 3 4 4 5 4 5 5 6 7 9 9 8 5 5 5 4 5 4 3 2 1 3 4 3 3 2 2 2 1 1 0 1 2 2 2 3 3 3 3 3 4 3 3 3 2
9 7 5 5 7 11 16 21 20 12 5 2 2 2 2 2 2 0 2 4 3 1 1 2 3 3 4 6 7 6 3 3 3 4 5 4 2 2 3 3 1 2 3 4 3 4 3 4 5 7 8 6 2 1 4 6 5 5 6 6 6 6 5 3 4 5 4 2 4 4 4 4 5 4 3 2 2 2 1 1 1 2 3 2 1 2 2
15 13 12 12 12 12 12 11 7 2 1 2 2 2 2 1 1 0 1 2 2 2 2 2 4 5 5 4 5 4 3 2 2 3 3 3 2 2 3 1 1 2 3 2 3 3 3 4 5 8 6 1 3 4 5 5 5 5 6 7 6 6 6 5 5 6 7 5 4 3 4 5 5 5 4 3 4 5 4 3 3 3 3 2 1 1 1
24 21 17 12 7 4 3 2 2 2 2 1 2 3 3 2 1 1 1 1 1 2 3 2 3 3 3 2 3 3 2 2 2 2 2 2 2 2 2 1 2 2 1 2 3 3 4 5 7 6 2 3 3 4 5 5 4 4 5 6 7 6 6 6 5 5 6 7 6 5 5 5 6 6 6 6 6 6 6 4 4 4 4 5 4 3 2
22 17 11 4 2 3 3 3 2 2 3 3 4 4 4 3 2 2 2 2 3 4 4 4 6 7 6 3 3 3 2 1 2 2 1 1 2 2 2 3 3 2 2 2 2 3 2 3 4 2 3 3 2 4 5 5 5 4 4 5 7 7 6 6 5 5 6 6 6 6 6 6 6 8 10 10 8 6 5 4 4 5 6 6 5 5 4
10 7 6 4 3 3 3 2 2 2 4 4 3 3 4 5 4 3 3 2 3 5 5 5 7 8 6 3 2 3 2 2 2 2 2 2 2 2 2 2 2 2 2 2 2 2 2 3 2 3 4 3 3 4 4 4 5 4 3 4 7 8 7 6 6 5 4 4 4 4 5 5 5 6 9 11 10 9 6 5 5 5 6 7 8 7 6
3 4 6 5 4 4 3 2 2 2 3 3 3 4 4 5 5 4 3 2 3 6 7 6 7 8 5 2 1 2 2 2 3 2 2 2 3 2 1 2 2 2 2 3 3 4 5 4 3 4 3 3 4 4 3 4 5 4 3 3 5 6 6 6 5 4 3 3 3 3 4 5 5 5 6 9 11 11 9 7 5 5 6 8 8 8 7
2 3 2 3 4 3 2 2 2 1 1 1 2 2 3 2 3 2 1 2 4 8 7 5 5 5 3 1 2 2 1 1 2 1 1 2 3 1 2 2 2 3 3 5 5 5 3 2 4 4 4 4 4 4 4 4 5 5 5 4 4 5 6 5 4 4 4 3 3 4 4 5 5 6 6 8 10 11 11 9 7 7 8 9 9 9 9
3 2 2 3 3 1 1 2 2 1 1 1 0 0 1 2 4 3 0 2 5 9 10 8 6 5 2 1 2 2 2 2 2 1 1 2 2 2 1 2 2 2 3 4 5 2 3 3 3 3 4 4 4 4 4 5 5 5 5 4 4 5 5 5 4 5 5 3 3 4 4 4 7 9 9 8 9 11 11 11 9 9 10 11 11 11 12
3 3 2 2 2 1 1 1 2 2 1 1 1 2 2 3 5 3 0 1 6 8 7 6 6 5 3 2 2 2 1 1 2 2 2 2 2 2 2 2 3 3 2 1 1 2 3 2 2 3 4 4 4 4 4 4 4 4 4 4 4 5 5 5 5 5 5 4 3 3 4 5 7 8 8 8 8 9 11 11 11 12 12 12 13 14 14
4 4 3 1 2 2 1 1 2 3 2 1 2 2 2 4 5 2 2 1 6 8 5 4 4 3 2 2 2 2 1 1 2 3 2 2 2 2 3 3 3 3 2 2 3 3 2 2 3 3 4 4 4 4 3 4 4 4 4 4 4 4 4 5 5 6 6 6 5 4 4 5 5 6 7 9 11 13 15 15 14 14 14 14 14 15 15
3 3 3 3 2 2 1 0 2 3 3 2 2 2 2 2 3 2 3 1 6 8 6 3 3 3 2 2 2 2 2 1 2 3 3 1 1 2 3 3 1 2 3 3 2 2 3 3 3 3 3 4 3 3 4 4 4 4 4 4 5 5 5 5 5 6 6 7 6 7 7 8 8 9 11 13 15 17 16 14 13 14 15 14 14 15 15
3 2 3 4 4 4 3 2 2 4 4 3 3 4 3 2 2 3 4 1 5 6 4 2 2 3 3 3 2 2 2 2 3 3 2 1 2 1 1 2 3 3 3 2 2 3 3 3 3 3 3 3 3 4 4 4 3 4 4 4 4 5 5 5 6 6 6 7 8 9 9 8 9 10 10 10 11 11 9 8 10 13 14 14 14 14 14
Wind_Direction
290 295 294 296 291 279 267 256 248 239 237 226 204 200 204 211 215 155 165 172 169 168 204 195 187 217 216 228 264 157 167 182 178 182 190 199 201 198 202 208 213 215 208 206 188 175 191 200 203 220 219 216 210 178 170 155 149 156 157 171 163 84 167 218 228 221 180 116 104 87 42 340 251 244 221 212 213 207 213 238 164 186 221 210 231 257 252
285 294 294 294 294 288 274 259 251 241 231 218 197 193 223 208 211 144 168 172 169 178 206 189 199 213 210 226 239 237 229 194 179 187 190 191 193 198 205 205 208 214 203 203 197 185 198 209 203 212 217 210 190 171 165 154 161 180 174 160 162 163 189 200 221 234 213 179 189 186 150 200 225 226 214 213 216 210 207 294 291 240 227 201 222 252 242
282 289 296 294 291 290 281 263 252 242 232 222 208 190 63 171 183 350 179 174 171 190 204 191 198 203 200 213 222 232 243 208 197 199 195 198 199 202 211 204 205 209 189 205 209 196 207 218 202 205 211 190 47 184 175 171 181 187 144 141 162 177 182 177 196 225 224 219 218 198 178 186 215 217 210 208 206 204 202 189 224 238 226 201 223 247 236
283 282 292 293 286 284 283 274 256 242 232 224 217 203 119 175 184 344 220 190 186 202 201 194 197 193 185 197 215 220 224 218 204 202 206 208 205 215 223 195 201 214 206 220 225 210 216 224 214 215 208 179 120 211 192 195 193 161 119 141 150 156 201 194 206 223 227 232 226 148 140 157 194 203 202 204 204 202 204 217 226 230 229 228 229 231 231
288 276 282 288 285 279 277 275 261 248 236 224 221 214 158 193 192 171 191 234 216 204 199 194 197 194 187 187 202 208 215 222 199 196 212 208 200 216 224 188 196 208 208 218 225 217 218 223 226 226 208 155 105 94 215 221 184 110 108 163 137 98 236 216 219 233 238 242 125 146 159 180 199 197 195 201 203 199 203 221 223 197 216 246 221 204 227
293 278 271 277 282 275 273 272 258 253 247 226 220 226 201 201 195 175 167 187 216 213 202 194 199 201 194 197 206 201 208 216 203 196 209 207 199 207 214 210 211 210 205 207 216 217 219 222 225 223 202 138 124 125 212 232 162 107 135 234 147 166 234 226 220 237 244 240 195 173 193 210 206 197 195 195 197 198 205 220 222 196 218 246 186 179 219
294 286 268 267 276 273 269 272 256 249 256 235 219 228 231 174 356 189 170 190 215 248 221 199 203 200 191 200 216 206 206 213 212 201 193 205 206 201 210 219 215 210 207 204 210 214 213 219 222 214 196 168 162 179 206 210 167 126 162 216 185 193 236 226 213 236 245 239 229 198 200 226 225 214 208 199 198 200 204 216 220 212 227 240 222 202 227
291 291 273 261 270 273 268 271 259 238 244 240 223 237 201 156 300 18 173 215 223 275 319 228 215 203 191 199 212 211 214 216 214 203 190 202 206 199 214 223 213 206 209 211 217 217 213 220 221 203 192 190 188 202 203 160 153 164 177 197 209 207 224 201 191 237 248 238 230 212 205 227 238 237 228 214 205 202 206 217 218 216 232 240 242 253 252
284 290 281 261 260 269 268 270 260 229 221 222 206 219 170 124 359 72 150 211 213 215 223 231 243 221 199 203 207 208 217 218 213 208 202 208 207 199 214 223 215 207 212 216 223 225 223 228 230 203 193 199 198 203 191 148 159 180 185 174 171 195 212 95 141 227 247 231 212 206 194 230 254 251 239 224 208 199 206 217 214 211 226 232 235 249 245
278 287 288 267 258 265 269 270 260 229 215 205 175 191 161 120 52 77 126 220 209 210 212 208 227 236 214 218 214 209 218 218 210 209 211 208 207 205 219 225 222 214 218 220 226 232 230 231 239 200 187 186 172 170 161 158 163 172 178 172 170 186 198 184 172 216 254 235 185 181 135 103 252 250 237 220 207 205 212 218 215 212 217 218 223 236 216
275 280 285 272 258 258 263 266 260 237 219 209 193 192 181 162 125 110 123 264 242 212 211 205 210 219 231 239 232 225 226 217 205 209 213 173 162 100 221 221 222 224 226 225 212 167 113 102 79 66 71 70 93 133 153 168 170 170 169 165 184 195 198 209 194 212 250 189 129 142 182 215 237 256 233 209 200 200 210 219 217 210 211 222 234 229 145
273 273 277 272 257 248 249 254 255 245 228 219 220 230 198 172 117 88 133 213 232 189 211 230 223 191 166 189 292 246 229 213 205 210 200 155 119 58 171 207 213 219 215 142 108 106 96 72 60 55 54 58 67 93 145 171 180 185 177 173 181 191 196 207 201 213 235 134 134 179 216 227 250 348 340 222 200 198 211 225 225 213 213 224 236 227 167
271 271 272 272 259 244 240 245 248 247 235 224 223 231 206 175 127 74 129 171 231 192 198 237 196 169 178 150 97 71 61 49 29 32 138 123 108 77 64 198 208 173 129 142 126 114 98 60 59 56 40 47 48 47 102 149 156 281 211 192 180 181 187 197 194 190 137 152 181 208 236 255 313 336 303 84 153 191 209 233 237 222 211 214 225 232 216
267 269 268 270 265 249 240 241 241 242 237 225 221 226 211 185 156 110 132 160 226 185 164 176 162 173 183 163 141 121 80 63 45 34 38 63 99 91 60 33 360 330 318 310 99 106 114 108 101 116 95 86 119 196 121 82 34 29 256 305 188 183 183 188 203 196 172 192 207 247 314 290 226 204 189 161 164 184 191 221 237 218 200 199 213 230 228
264 267 267 267 270 260 246 241 240 240 237 225 221 224 213 196 182 159 139 148 176 178 193 217 180 167 168 161 152 146 128 115 100 66 38 36 62 76 24 12 330 301 300 66 89 109 141 159 166 180 181 169 186 196 156 127 63 39 24 10 21 190 185 189 205 201 177 207 221 242 270 257 218 184 180 155 141 170 168 198 234 200 182 185 196 222 225
266 267 267 267 272 270 258 246 240 240 237 225 221 224 218 204 186 157 119 116 168 206 210 183 149 139 144 148 148 147 143 142 131 109 93 63 67 70 344 322 304 323 17 73 89 118 160 183 188 189 191 180 166 145 134 161 154 91 89 114 108 102 122 174 201 193 173 200 217 214 227 244 184 154 134 74 52 114 109 99 263 194 170 182 194 214 217
269 268 267 264 265 266 261 253 243 238 235 226 221 223 221 207 186 164 134 112 184 231 185 139 140 140 145 148 145 140 125 118 114 114 123 119 96 80 10 351 10 24 35 83 135 162 175 186 186 181 180 160 156 140 126 157 165 146 136 139 139 145 149 185 207 206 192 199 215 230 239 267 108 127 104 52 330 102 104 153 253 186 175 191 194 201 193
270 269 267 263 260 257 255 253 247 239 233 227 223 227 225 211 192 172 146 125 176 220 229 159 154 156 165 155 145 152 137 118 110 91 99 107 104 125 130 67 44 25 33 158 174 191 187 183 177 177 171 128 160 151 128 147 168 165 147 139 144 166 182 197 207 212 208 206 216 249 257 185 136 131 126 130 67 97 161 215 221 143 171 179 160 166 158
266 267 268 265 262 258 253 249 246 241 236 228 223 229 234 218 199 177 152 164 191 194 194 179 164 166 169 100 94 107 95 102 126 124 122 139 140 115 112 79 353 212 186 186 190 194 200 209 202 148 152 162 172 158 132 143 142 135 145 152 162 168 165 188 206 206 207 211 220 255 272 164 118 99 89 142 148 166 199 212 46 104 158 140 131 149 146
262 264 266 265 262 259 254 248 243 239 237 229 220 222 240 223 203 188 182 187 173 158 167 182 197 186 170 147 143 153 146 99 157 157 146 153 141 125 132 196 216 152 159 195 204 195 200 208 192 139 170 177 163 129 109 124 84 130 161 177 179 161 160 183 201 191 179 204 209 221 273 162 137 122 101 229 219 169 145 118 54 52 123 134 146 160 163
259 259 261 262 261 259 255 251 244 237 235 231 221 219 242 229 207 199 203 201 173 162 185 194 203 193 175 176 173 167 163 165 174 166 120 125 163 161 161 169 161 159 172 182 182 192 199 178 142 125 127 102 153 162 125 131 228 309 29 35 176 176 177 191 196 181 174 202 207 211 340 181 164 143 134 183 184 111 125 130 107 65 135 153 166 179 186
257 256 257 257 259 258 255 253 248 237 233 230 219 213 232 231 210 202 202 182 128 64 131 167 180 187 188 194 191 183 180 181 177 160 126 120 183 189 101 115 147 163 189 162 155 158 159 149 136 136 137 134 172 181 73 161 185 142 32 258 227 188 165 153 168 170 166 182 189 17 16 168 165 37 15 122 107 53 97 113 110 138 172 166 184 195 191
254 254 254 254 256 258 256 253 248 240 234 228 216 208 217 226 207 194 181 132 91 58 72 118 143 163 208 221 210 194 185 183 180 170 156 154 180 182 97 130 151 120 30 21 223 124 127 139 126 127 168 172 156 144 29 266 210 161 180 234 255 84 112 133 188 145 142 142 129 96 98 147 121 20 356 76 81 15 51 100 116 158 166 173 202 198 166
252 251 252 252 252 254 255 253 248 241 234 229 218 211 218 225 201 180 161 117 131 139 88 127 171 167 189 209 203 185 172 172 180 183 178 172 177 190 191 173 154 127 110 221 328 42 89 101 54 154 192 172 150 161 191 219 209 161 155 219 253 164 149 175 213 175 168 172 109 79 73 136 106 48 8 57 70 15 35 89 96 85 146 184 209 65 115
250 248 249 250 248 249 251 252 250 242 235 233 223 210 212 220 204 187 178 165 181 167 137 181 196 137 123 168 180 181 185 183 178 181 182 176 172 178 153 129 105 103 121 151 167 97 102 98 81 203 195 171 163 186 199 200 180 159 167 203 225 162 141 160 216 211 146 146 77 44 23 37 74 37 291 108 113 153 112 63 55 41 65 133 83 73 112
247 246 246 246 245 246 246 246 248 245 237 235 226 210 208 213 208 200 201 14 122 166 149 175 180 109 117 147 162 182 192 188 179 174 175 170 146 133 130 116 91 88 95 98 101 88 86 104 144 202 202 176 158 173 168 82 116 155 196 215 153 123 144 153 156 147 117 120 175 105 88 147 160 211 240 252 204 151 121 83 72 54 71 100 88 67 100
245 244 243 243 242 244 243 241 243 244 237 232 230 224 218 213 207 203 202 195 160 189 194 178 158 132 144 161 169 167 171 177 175 164 150 147 139 132 130 125 114 115 112 99 91 93 110 152 187 209 185 108 63 83 63 42 62 168 230 220 143 146 174 153 120 164 219 193 168 166 146 127 169 199 214 219 205 158 145 163 184 184 157 147 142 115 89
243 242 240 240 240 241 242 239 237 240 236 227 228 231 222 213 210 208 206 208 233 326 180 166 128 134 152 175 173 162 162 173 172 155 137 143 140 131 127 125 123 134 141 134 130 141 183 195 162 101 146 175 108 126 95 67 5 265 242 197 170 178 186 157 148 196 248 160 159 164 129 69 186 201 190 186 181 171 181 200 202 197 190 175 168 165 156
239 240 238 238 237 237 239 238 235 237 236 223 219 225 221 213 212 210 207 209 222 337 91 117 116 131 137 131 145 149 152 164 163 149 138 145 143 136 140 138 134 144 142 132 150 164 176 189 143 110 249 278 127 155 150 127 225 249 238 156 150 153 97 114 127 116 50 132 163 163 132 103 195 192 158 155 167 178 196 209 199 189 188 185 191 202 197
235 237 237 237 235 235 236 234 230 234 232 217 203 199 207 213 211 208 206 207 206 184 101 130 150 134 78 71 100 128 142 148 148 141 139 145 151 156 156 144 132 132 121 129 191 170 141 161 153 139 294 320 95 164 199 184 239 252 228 139 133 115 91 97 107 104 115 148 148 139 128 117 118 108 99 122 158 171 191 208 194 188 189 186 190 211 218
233 234 235 235 233 233 234 231 230 232 223 202 181 169 212 220 206 203 203 202 197 187 134 111 139 110 74 89 97 125 136 132 130 133 133 136 144 145 140 137 148 165 158 161 187 182 167 174 159 149 214 316 122 164 180 185 254 261 205 147 137 126 130 144 100 84 113 119 96 82 81 80 84 110 135 169 170 172 195 211 183 176 182 183 188 201 210
234 232 233 233 231 232 233 231 230 229 215 199 192 201 208 52 191 196 195 192 189 184 156 137 146 127 146 149 86 77 120 117 110 118 124 129 139 130 108 127 152 169 184 168 169 191 202 176 157 164 171 157 152 132 162 214 239 248 121 118 123 131 152 166 128 85 113 124 113 103 117 210 207 204 190 157 152 170 202 208 98 108 133 157 187 217 222
235 231 229 231 231 229 230 230 230 231 225 217 217 221 220 214 108 188 186 182 178 176 185 170 162 162 160 137 102 118 141 125 115 139 153 161 160 146 139 153 143 171 251 212 180 190 193 142 166 167 133 113 141 127 227 236 233 198 90 99 127 140 147 149 136 138 159 157 154 165 186 203 212 208 165 105 116 148 188 149 93 90 104 162 253 250 241
237 233 229 229 230 228 228 230 230 231 229 221 225 230 224 215 184 181 178 170 146 77 194 179 141 132 127 103 104 171 172 158 150 158 161 159 160 162 164 161 165 209 227 194 174 177 115 162 179 165 139 148 173 192 240 242 229 169 110 117 128 115 107 134 181 193 180 173 195 209 145 105 109 119 117 129 131 121 108 113 120 139 222 256 257 254 247
238 234 228 228 230 228 227 227 229 230 221 198 218 231 223 212 200 187 179 168 141 89 188 182 160 150 136 114 148 170 168 165 165 162 153 142 152 168 167 157 183 208 197 158 174 201 182 175 187 179 166 179 195 216 236 236 212 185 183 168 133 114 126 172 202 214 152 149 201 236 97 87 101 172 189 178 167 157 147 143 156 188 229 248 250 247 245
239 233 229 228 228 229 228 222 216 213 201 201 225 229 213 199 194 190 183 177 173 182 168 166 181 169 150 147 160 152 150 162 166 151 138 131 143 169 172 170 191 204 176 143 197 208 196 186 190 191 194 201 212 225 234 229 212 214 215 190 156 151 166 169 160 158 171 182 210 244 93 125 215 230 215 172 151 153 172 181 170 188 223 244 248 240 236
242 233 226 222 220 224 228 209 198 207 218 214 203 194 185 179 174 178 182 185 203 259 160 180 193 176 155 148 150 144 151 163 153 138 146 151 151 164 175 184 193 179 138 180 210 204 194 185 173 189 212 221 226 230 231 232 233 229 206 151 151 157 160 154 143 145 161 186 219 233 211 227 241 238 222 203 181 166 181 202 204 203 219 236 244 242 246
249 230 219 214 210 211 211 198 199 207 207 190 159 147 164 170 155 145 173 196 226 220 190 197 190 171 154 143 144 150 160 158 142 143 161 155 149 158 167 197 212 185 159 202 204 178 171 186 191 209 228 238 244 242 236 232 234 218 116 114 138 148 151 154 146 144 154 182 216 214 205 228 247 242 231 223 212 195 199 219 225 222 228 238 247 256 269
251 227 208 203 203 205 210 203 194 185 174 164 161 163 180 178 165 171 177 168 160 187 198 198 185 170 159 147 142 154 176 160 150 163 168 156 160 169 160 184 212 173 164 208 187 151 155 197 206 218 235 243 245 243 231 204 172 115 98 108 134 149 163 174 171 170 180 195 208 201 192 208 234 235 224 222 222 216 217 229 233 238 246 252 264 280 289
239 212 192 200 209 194 168 170 173 168 151 141 172 201 202 195 192 177 154 146 149 185 190 178 162 163 162 149 144 160 202 176 158 165 164 159 162 147 142 179 197 151 176 210 177 135 156 192 192 211 235 239 239 233 191 132 107 74 55 40 24 29 158 181 173 179 197 172 105 89 138 172 210 153 154 176 194 196 201 212 226 249 268 275 287 302 307
206 194 185 173 167 157 152 156 160 159 146 157 191 180 180 205 224 159 146 156 158 173 183 146 134 154 171 152 140 144 156 144 129 134 145 157 162 134 150 194 213 143 187 203 151 125 163 183 191 220 232 231 245 60 95 97 84 58 39 21 6 2 4 32 57 27 8 58 91 63 43 51 62 65 62 60 83 119 146 115 57 8 349 341 331 327 315
206 186 162 143 136 141 150 157 157 141 125 185 196 198 185 170 124 108 198 186 164 155 171 168 152 152 151 136 125 125 130 128 119 125 146 165 167 138 146 166 100 145 182 169 114 125 164 175 202 226 224 170 36 27 57 66 51 44 38 24 11 4 8 32 53 29 12 33 74 65 50 60 65 59 55 67 82 83 70 56 57 51 51 69 83 353 312
190 167 147 136 132 139 164 196 192 169 172 178 178 179 176 159 131 158 181 237 246 151 143 134 119 118 116 101 88 88 98 114 112 117 143 153 127 106 120 151 165 165 149 91 114 154 177 189 207 220 186 84 46 25 38 32 12 26 45 34 17 10 17 43 65 53 35 41 54 59 65 74 73 69 75 87 97 94 81 72 79 91 95 97 93 81 78
165 151 139 136 151 158 186 211 189 167 192 201 189 183 177 165 169 173 164 174 190 171 155 153 148 142 143 140 112 102 112 131 108 99 130 135 108 115 157 175 173 143 99 107 153 173 197 216 214 184 110 99 64 30 31 20 1 3 19 21 17 16 23 41 58 59 50 47 49 51 60 69 73 71 68 68 76 87 86 74 78 95 107 103 90 82 86
152 144 142 156 169 167 184 193 161 173 207 207 191 183 177 166 170 181 172 155 153 147 145 153 149 137 128 114 109 121 132 133 127 135 143 127 125 161 170 153 122 106 126 145 150 167 215 226 182 127 118 107 65 35 24 17 8 351 335 357 14 17 18 26 36 44 46 43 42 48 56 58 60 64 63 62 66 74 76 70 72 91 106 101 87 78 80
157 150 145 155 175 187 194 185 165 183 207 199 179 176 176 169 167 168 160 139 140 142 143 144 140 133 124 97 91 113 116 120 135 144 128 119 140 167 138 104 99 118 145 155 169 193 206 197 126 94 85 62 43 31 17 17 12 360 355 12 12 8 11 21 31 41 46 47 58 75 78 70 69 77 76 70 66 65 65 67 72 89 101 96 85 79 84
124 124 131 156 171 179 194 201 196 181 162 175 176 176 166 135 109 108 150 187 153 139 130 114 103 106 108 92 95 102 97 101 122 136 117 117 129 113 68 100 157 169 166 179 196 202 186 123 72 53 39 28 20 12 14 19 13 9 16 20 5 2 10 15 15 14 18 42 82 90 79 71 78 86 85 75 64 60 61 65 71 83 94 93 88 88 94
126 113 117 151 161 175 181 163 141 81 28 338 338 99 146 126 108 99 133 204 153 139 136 132 120 108 95 76 89 108 118 108 114 135 115 97 114 127 117 136 172 189 193 197 196 166 92 70 44 22 19 17 10 7 12 12 3 1 5 2 355 360 5 4 2 360 357 12 77 89 89 94 98 99 98 90 73 63 64 70 77 84 91 93 91 91 94
81 82 71 104 102 46 10 146 116 86 51 337 181 162 156 129 115 107 289 188 148 139 135 129 122 121 129 117 93 98 135 145 129 128 121 105 127 150 149 157 178 191 196 181 110 73 55 34 20 25 23 15 11 11 5 356 351 353 354 352 351 353 354 356 1 2 358 2 28 69 98 110 109 104 101 97 86 76 76 81 85 86 89 93 95 94 96
55 59 43 50 94 85 58 201 145 125 118 121 130 137 128 116 113 103 312 178 143 135 116 90 90 102 115 119 107 107 137 164 132 123 134 160 165 145 140 167 187 178 125 66 48 40 26 9 10 16 12 8 12 11 356 347 348 347 344 346 348 351 359 6 4 4 10 18 25 45 73 84 86 87 93 100 101 93 85 82 83 87 89 94 98 100 99
67 67 50 40 41 34 3 154 124 117 119 111 68 30 25 83 98 49 333 219 153 147 138 125 116 106 100 122 144 140 125 120 125 125 126 135 155 158 162 164 145 74 63 63 44 27 24 22 15 4 352 351 360 360 347 340 338 335 339 352 1 4 12 18 13 10 20 36 50 65 74 77 84 95 103 106 104 95 83 73 76 87 92 94 98 102 103
61 86 82 57 31 8 349 350 58 69 64 44 14 358 358 17 16 341 322 257 160 154 147 122 104 116 128 143 149 130 108 114 135 144 134 79 30 21 106 91 60 44 49 58 43 29 27 25 20 9 347 335 341 345 336 329 332 342 351 1 9 15 20 24 25 30 44 61 73 82 87 91 98 105 106 100 94 89 78 69 76 87 93 95 97 100 103